Location: ????????
(55.7667°N, 37.4833°E)
Time: 09:53:27
(UTC+00:00)

Cosmos 1331 Rocket - Pass Details

Date: 19 May 2025
Orbit: 746 x 773 km, 74.0° (Epoch: 12 June)

Event Time Altitude Azimuth Distance (km) Brightness Sun altitude
Rises 22:47:07 0° 330° (NNW) 3,234 7.9 -12.4°
Reaches altitude 10° 22:49:32 10° 326° (NW) 2,300 7.0 -12.2°
Maximum altitude 22:54:36 55° 250° (WSW) 907 4.2 -12.0°
Enters shadow 22:59:07 13° 175° (S) 2,085 5.7 -11.8°
